Ft Lauderdale, FL

11:32 AM EDT on June 22, 2017 (GMT -0400)
Fort Lauderdale-Hollywood International

Weather History for KFLL - November, 2014

Change the Weather History Date:

Saturday, November 22, 2014

  Actual Average Record
Temperature  
Mean Temperature 77 °F 75 °F  
Max Temperature 80 °F 81 °F 89 °F (1923)
Min Temperature 74 °F 68 °F 43 °F (1952)
Degree Days  
Heating Degree Days 0 0  
Month to date heating degree days 6 0  
Since 1 July heating degree days 6 0  
Cooling Degree Days 12 10  
Month to date cooling degree days 187 246  
Year to date cooling degree days 4534 4440  
Growing Degree Days 28 (Base 50)    
Moisture  
Dew Point 70 °F    
Average Humidity 76    
Maximum Humidity 82    
Minimum Humidity 69    
Precipitation  
Precipitation 0.05 in 0.07 in 2.76 in (1912)
Month to date precipitation 2.84 2.51  
Year to date precipitation 59.28 58.99  
Snow  
Snow 0.00 in - - ()
Month to date snowfall 0.0  
Since 1 July snowfall 0.0  
Since 1 September snowfall 0.0  
Snow Depth 0.00 in    
Sea Level Pressure  
Sea Level Pressure 30.11 in    
Wind  
Wind Speed 22 mph (East)    
Max Wind Speed 31 mph    
Max Gust Speed 36 mph    
Visibility 9 miles    
Events Rain    
T = Trace of Precipitation, MM = Missing Value Source: NWS Daily Summary

Daily Weather History Graph

Daily Weather History Graph

Search for Another Location

Airport or City:

Trip Planner

Search our weather history database for the weather conditions in past years. The results will help you decide how hot, cold, wet, or windy it might be!

Date:

Astronomy

Nov. 22, 2014 Rise Set
Actual Time 6:44 AM EST 5:29 PM EST
Civil Twilight 6:19 AM EST 5:53 PM EST
Nautical Twilight 5:51 AM EST 6:21 PM EST
Astronomical Twilight 5:23 AM EST 6:49 PM EST
Moon 6:42 AM EST 5:55 PM EST
Length of Visible Light 11h 34m
Length of Day
10h 45m
New Moon, 0% of the Moon is Illuminated
Nov 22
New Moon
Nov 29
First Quarter
Dec 6
Full
Dec 14
Last Quarter
Dec 21
New

Hourly Weather History & Observations

Time (EST) Temp. Heat Index Dew Point Humidity Pressure Visibility Wind Dir Wind Speed Gust Speed Precip Events Conditions
12:53 AM 75.0 °F - 68.0 °F 79% 30.15 in 10.0 mi East 15.0 mph - 0.00 in   Overcast
1:53 AM 75.9 °F - 66.9 °F 74% 30.13 in 10.0 mi East 15.0 mph 25.3 mph N/A   Overcast
2:53 AM 75.9 °F - 68.0 °F 76% 30.13 in 10.0 mi East 19.6 mph 28.8 mph N/A   Overcast
3:53 AM 77.0 °F - 66.9 °F 71% 30.13 in 10.0 mi East 21.9 mph 27.6 mph N/A   Overcast
4:53 AM 77.0 °F - 68.0 °F 74% 30.14 in 10.0 mi East 16.1 mph - N/A   Overcast
5:53 AM 77.0 °F - 69.1 °F 76% 30.14 in 10.0 mi East 17.3 mph 25.3 mph 0.01 in   Overcast
6:53 AM 78.1 °F - 68.0 °F 71% 30.15 in 10.0 mi East 21.9 mph - N/A   Overcast
7:53 AM 78.1 °F - 69.1 °F 74% 30.16 in 10.0 mi East 19.6 mph 26.5 mph 0.00 in   Overcast
8:53 AM 79.0 °F - 69.1 °F 72% 30.17 in 10.0 mi East 20.7 mph 29.9 mph N/A   Overcast
9:53 AM 78.1 °F - 69.1 °F 74% 30.18 in 10.0 mi East 24.2 mph 32.2 mph N/A   Overcast
10:53 AM 78.1 °F - 70.0 °F 76% 30.18 in 9.0 mi East 23.0 mph 32.2 mph 0.00 in   Overcast
11:33 AM 77.0 °F - 71.1 °F 82% 30.17 in 9.0 mi East 19.6 mph 27.6 mph 0.02 in Rain Light Rain
11:53 AM 78.1 °F - 70.0 °F 76% 30.16 in 10.0 mi East 24.2 mph 32.2 mph 0.02 in   Overcast
12:53 PM 79.0 °F - 70.0 °F 74% 30.13 in 10.0 mi East 20.7 mph 29.9 mph N/A   Overcast
1:53 PM 79.0 °F - 69.1 °F 72% 30.10 in 10.0 mi East 23.0 mph - N/A   Overcast
2:53 PM 80.1 °F 82.9 °F 69.1 °F 69% 30.09 in 10.0 mi East 23.0 mph 32.2 mph N/A   Overcast
3:53 PM 79.0 °F - 69.1 °F 72% 30.08 in 10.0 mi East 21.9 mph 29.9 mph N/A   Overcast
4:53 PM 79.0 °F - 69.1 °F 72% 30.07 in 10.0 mi East 23.0 mph 32.2 mph N/A   Overcast
5:53 PM 79.0 °F - 69.1 °F 72% 30.06 in 10.0 mi East 24.2 mph 31.1 mph N/A   Overcast
6:27 PM 79.0 °F - 69.1 °F 72% 30.07 in 10.0 mi East 24.2 mph 33.4 mph N/A   Overcast
6:53 PM 79.0 °F - 70.0 °F 74% 30.07 in 9.0 mi East 28.8 mph 34.5 mph N/A   Overcast
7:42 PM 78.1 °F - 71.1 °F 79% 30.07 in 4.0 mi ESE 27.6 mph 34.5 mph 0.01 in Rain Rain
7:53 PM 77.0 °F - 72.0 °F 84% 30.08 in 7.0 mi ESE 25.3 mph 34.5 mph 0.02 in Rain Light Rain
8:44 PM 78.1 °F - 71.1 °F 79% 30.08 in 9.0 mi ESE 25.3 mph 32.2 mph 0.00 in   Overcast
8:53 PM 78.1 °F - 70.0 °F 76% 30.08 in 9.0 mi ESE 26.5 mph 32.2 mph 0.00 in   Overcast
9:53 PM 78.1 °F - 71.1 °F 79% 30.08 in 9.0 mi ESE 23.0 mph 33.4 mph N/A   Overcast
10:33 PM 78.1 °F - 72.0 °F 81% 30.08 in 9.0 mi ESE 23.0 mph 33.4 mph N/A   Mostly Cloudy
10:53 PM 78.1 °F - 72.0 °F 81% 30.08 in 9.0 mi ESE 19.6 mph - N/A   Mostly Cloudy
11:53 PM 78.1 °F - 72.0 °F 81% 30.06 in 10.0 mi SE 20.7 mph - N/A   Mostly Cloudy